Location: Drummondville
(45.8830°N, 72.4830°W)
Time: 10:42:40
(UTC-05:00)

Envisat - Pass Details

Date: 15 November 2017
Orbit: 764 x 766 km, 98.2° (Epoch: 18 November)

Event Time Altitude Azimuth Distance (km) Brightness Sun altitude
Exits shadow 19:38:29 13° 345° (NNW) 2,134 5.5 -34.7°
Drops below altitude 10° 19:38:56 10° 345° (NNW) 2,312 5.7 -34.8°
Sets 19:41:15 0° 346° (NNW) 3,242 6.5 -35.2°
